Location: Logan
(41.7360°N, 111.8340°W)
Time: 09:14:25
(UTC-06:00)

Daily predictions for brighter satellites

Satellite Brightness Start Highest point End
(mag) Time Altitude Azimuth Time Altitude Azimuth Time Altitude Azimuth
Helios 1A 4.4 20:14:20 10° ESE 20:17:21 20° ENE 20:20:24 10° NNE
Cosmos 2344 4.1 20:13:18 10° SW 20:20:57 71° NW 20:29:40 10° NNE
Lacrosse 5 3.3 20:16:33 10° WSW 20:21:18 39° NW 20:26:03 10° NE
Okean 3 Rocket 3.5 20:17:47 10° N 20:22:12 76° E 20:26:37 10° SSE
Abrixas 4.0 20:20:47 10° W 20:23:18 28° SW 20:25:47 10° SSE
H-2A R/B 3.1 20:19:35 10° SSE 20:23:20 46° ENE 20:27:08 10° N
Cosmos 2297 3.7 20:19:22 10° SSW 20:25:01 67° ESE 20:30:43 10° NNE
COSMOS 2487 2.7 20:21:57 10° N 20:25:26 50° ENE 20:28:56 10° SE
SJ-6B 3.0 20:24:36 10° S 20:28:18 71° WSW 20:32:04 10° NNW
Cosmos 372 Rocket 4.0 20:24:05 10° S 20:29:04 55° ESE 20:34:06 10° NNE
Timation 2 Rocket 4.1 20:23:17 10° NNW 20:29:31 57° ENE 20:35:27 10° SE
Cosmos 1340 Rocket 3.9 20:26:17 10° NNE 20:29:40 25° ENE 20:33:00 10° SE
Cosmos 158 Rocket 4.1 20:24:51 10° NNW 20:29:56 56° ENE 20:35:07 10° SE
Cosmos 1934 Rocket 4.5 20:25:11 10° SSW 20:31:15 65° W 20:37:17 10° N
Cosmos 1269 Rocket 4.0 20:29:28 10° NNW 20:34:47 75° ENE 20:40:03 10° SSE
Cosmos 2082 Rocket 2.2 20:29:55 10° NNW 20:35:38 76° ENE 20:41:17 10° SSE
Cosmos 1818 4.1 20:32:06 10° NW 20:37:29 63° WSW 20:42:49 10° SSE
Cosmos-2242 3.4 20:34:18 10° SSE 20:38:14 39° E 20:42:14 10° NNE
CZ-3B DEB 3.9 20:27:57 10° WSW 20:38:33 48° NW 20:43:36 10° NE
USA 215 4.4 20:35:52 10° ENE 20:40:16 19° ESE 20:44:39 10° SSE
Cosmos 1766 Rocket 3.7 20:36:35 10° N 20:41:00 56° E 20:45:23 10° SSE
FengYun 1-2 T 4.4 20:38:07 10° SSE 20:43:43 81° WSW 20:49:23 10° NNW
ALOS 2.9 20:42:18 10° S 20:46:55 61° W 20:51:33 10° NNW
BREEZE-M DEB (TANK) 3.2 20:44:12 10° WSW 20:47:02 81° NNW 20:54:45 10° ENE
Cosmos 1271 Rocket 3.0 20:44:02 10° S 20:47:54 49° E 20:51:48 10° NNE
Cosmos 1674 2.6 20:46:56 10° N 20:50:43 68° E 20:54:30 10° SSE
GP-B 3.2 20:47:03 10° SSE 20:51:22 54° E 20:55:42 10° N
Meteor 1-4 Rocket 3.1 20:48:43 10° SSW 20:52:07 57° W 20:55:34 10° N
USA 186 1.1 20:54:24 33° ESE 20:54:58 42° ENE 20:57:06 10° N
Spot 2 Rocket 3.6 20:51:52 10° SSE 20:56:58 83° WSW 21:02:07 10° NNW
Cosmos 389 Rocket 4.3 20:58:09 15° ENE 20:58:09 15° ENE 20:59:25 10° NE
Spot 1 4.4 20:54:00 10° SSE 20:58:38 58° ENE 21:03:32 10° N
Cosmos 1758 4.2 20:54:58 10° SSW 20:58:50 52° W 21:02:46 10° N
Cosmos 1184 Rocket 3.7 20:57:55 10° N 21:00:59 31° ENE 21:01:50 27° ESE
Resurs 01 Rocket 2.1 20:58:18 10° S 21:02:40 64° WSW 21:07:05 10° NNW
Cosmos 1953 3.3 21:00:24 10° SSW 21:04:20 50° W 21:08:18 10° N
GPS 2-05 Rocket1 4.0 21:01:21 10° WSW 21:04:30 30° S 21:05:45 24° SE
Cosmos 2058 4.4 21:02:26 10° NNE 21:05:27 19° ENE 21:05:31 19° ENE
Cosmos 2016 Rocket 4.2 20:59:43 10° SSE 21:05:34 45° E 21:11:22 10° NNE
Cosmos 482 Debris 3.4 21:09:33 10° NW 21:10:54 42° NNW 21:10:54 42° NNW
Cosmos 1743 Rocket 3.6 21:07:35 10° N 21:11:58 56° E 21:14:54 20° SSE
Cosmos 1500 Rocket 4.0 21:08:27 10° N 21:12:32 40° ENE 21:14:05 29° ESE
OAO 2 Rocket 4.5 21:09:21 10° SW 21:13:42 28° SSE 21:15:07 24° SE
CZ-4C R/B 3.3 21:09:55 10° SSE 21:17:58 12° ENE 21:18:35 10° ENE
CZ-4B DEB 2.7 21:14:22 43° SE 21:15:04 56° ENE 21:18:07 10° N
Envisat 3.1 21:11:41 19° SE 21:15:15 56° ENE 21:20:13 10° N
Cosmos 1725 Rocket 4.4 21:10:51 12° SSE 21:16:05 38° E 21:21:43 10° NNE
SeaSat 1 3.4 21:14:12 10° S 21:18:55 46° WSW 21:23:40 10° NW
Cosmos 1939 Rocket 3.2 21:17:33 32° SE 21:19:02 47° ENE 21:23:03 10° N
Lacrosse 5 rocket 1.6 21:20:34 10° NW 21:24:24 53° SW 21:25:53 31° SSE
ERS-1 Rocket 3.6 21:23:12 31° ESE 21:24:34 37° ENE 21:29:10 10° N
CZ-2D R/B 4.4 21:21:19 10° S 21:25:00 43° W 21:28:44 10° NNW
Cosmos 2369 Rocket 2.8 21:20:23 10° SSE 21:25:19 32° ESE 21:30:15 10° NE
Cosmos 2100 Rocket 4.1 21:19:37 10° S 21:25:58 82° W 21:32:23 10° N
Helios 1B rocket 2.4 21:21:51 10° NNE 21:26:00 86° WNW 21:30:06 10° SSW
ISS -2.6 21:23:35 10° W 21:26:41 39° NNW 21:28:31 20° NNE
Geosat 3.9 21:22:14 10° NNE 21:27:17 84° ESE 21:32:19 10° SSW
Cosmos 2151 3.3 21:23:39 10° N 21:27:42 42° ENE 21:28:05 41° E
BREEZE-M DEB (TANK) 3.2 21:33:00 10° NW 21:35:07 35° NNE 21:35:07 35° NNE
Cosmos 1833 Rocket 4.0 21:31:37 10° NW 21:36:46 38° WSW 21:41:54 10° S
H-2A R/B 3.8 21:40:24 17° NE 21:40:24 17° NE 21:43:13 10° NNE
Tsikada Rocket 4.1 21:33:55 10° N 21:40:02 55° E 21:42:24 36° SE
CZ-3 Stage 3 3.9 21:09:44 10° W 21:42:42 48° SSW 21:46:33 29° SE
Cosmos 1842 Rocket 3.6 21:42:34 10° S 21:46:59 79° W 21:51:23 10° N
ATLAS 5 CENTAUR R/B 3.4 21:43:20 10° WSW 21:47:42 35° NW 21:52:29 10° NNE
Meteor 1-29 3.8 21:44:43 10° N 21:48:07 50° WNW 21:51:30 10° SSW
Cosmos 1802 Rocket 4.3 21:45:06 10° SSW 21:51:11 66° W 21:57:22 10° N
Helios 1A 4.4 21:49:20 13° SSW 21:52:40 36° W 21:56:34 10° NNW
Lacrosse 5 4.4 22:02:26 10° NW 22:05:33 16° NNW 22:08:39 10° NNE
Cosmos 1816 Rocket 4.4 22:00:19 10° N 22:06:32 74° E 22:07:54 55° SSE
YAOGAN 6 3.6 22:09:57 45° NNW 22:09:57 45° NNW 22:12:39 10° NNW
Cosmos 1356 Rocket 4.3 22:05:22 10° NNW 22:09:14 43° W 22:09:54 39° WSW
MetOp-A 4.0 22:09:32 66° ENE 22:09:36 66° ENE 22:14:55 10° N
SPOT 5 3.3 22:10:42 53° NE 22:10:42 53° NE 22:15:28 10° N
Terra 4.1 22:14:14 14° NE 22:14:14 14° NE 22:15:17 10° NNE
Cosmos 2251 Rocket 4.4 22:10:10 10° NNW 22:15:16 47° WSW 22:17:06 33° SSW
ARGOS 3.5 22:17:53 52° NE 22:17:53 52° NE 22:22:28 10° N
Cosmos 2233 Rocket 3.8 22:18:00 69° SE 22:18:30 73° E 22:24:38 10° NNE
SPOT 1/Viking Rocket 4.4 22:24:58 40° NNE 22:24:58 40° NNE 22:28:43 10° N
USA 215 3.1 22:17:22 10° NE 22:23:56 77° SE 22:30:27 10° SW
Cosmos 2221 3.9 22:34:55 35° NNW 22:34:55 35° NNW 22:37:38 10° N
MOS 1-B Rocket 4.3 22:48:46 76° E 22:49:01 77° ENE 22:55:52 10° N
CZ-3B DEB 4.1 22:47:30 10° NW 22:50:49 15° NNW 22:52:05 14° N
USA 267 3.7 22:56:11 49° NE 22:56:21 49° NNE 23:02:36 10° NW
CZ-4C R/B 3.0 22:56:54 10° SW 23:02:38 49° NNW 23:07:57 10° NNE
Cosmos 2369 Rocket 3.5 23:04:03 10° SW 23:09:14 37° WNW 23:14:26 10° N
H-2A R/B 3.5 23:21:02 35° NNW 23:21:02 35° NNW 23:24:04 10° NNW
Cosmos 2227 Rocket 4.4 23:21:34 10° N 23:23:35 17° NNE 23:23:35 17° NNE
Cosmos 1943 Rocket 4.0 23:31:54 26° N 23:31:54 26° N 23:34:27 10° NNE
Terra 4.4 23:53:07 17° NNW 23:53:07 17° NNW 23:54:13 10° NNW
ATLAS 3B R/B 4.3 23:54:41 27° NNE 23:54:41 27° NNE 23:57:34 10° NNE
